Mount Erie, IL

1:50 PM CST on February 06, 2016 (GMT -0600)
Fairfield Municipal

Weather History for KFWC - November, 2011

Change the Weather History Date:

Monday, November 28, 2011

  Actual Average (KEVV) Record (KEVV)
Temperature  
Mean Temperature 38 °F 41 °F  
Max Temperature 39 °F 50 °F 70 °F (1997)
Min Temperature 37 °F 32 °F 12 °F (1955)
Degree Days  
Heating Degree Days 27 24  
Month to date heating degree days 510  
Since 1 July heating degree days 813  
Cooling Degree Days 0 0  
Month to date cooling degree days 0  
Year to date cooling degree days 1395  
Moisture  
Dew Point 35 °F    
Average Humidity 91    
Maximum Humidity 93    
Minimum Humidity 87    
Precipitation  
Precipitation 0.27 in 0.15 in 1.56 in (2001)
Month to date precipitation 4.03  
Year to date precipitation 41.25  
Snow  
Snow 0.00 in 0.00 in 6.90 in (1958)
Month to date snowfall 0.1  
Since 1 July snowfall 0.3  
Since 1 September snowfall 0.3  
Snow Depth -    
Sea Level Pressure  
Sea Level Pressure 29.93 in    
Wind  
Wind Speed 14 mph (North)    
Max Wind Speed 29 mph    
Max Gust Speed 37 mph    
Visibility 8 miles    
Events Rain    
T = Trace of Precipitation, MM = Missing Value Source: NWS Daily Summary

Daily Weather History Graph

Daily Weather History Graph

Search for Another Location

Airport or City:

Trip Planner

Search our weather history database for the weather conditions in past years. The results will help you decide how hot, cold, wet, or windy it might be!

Date:

Astronomy

Nov. 28, 2011 Rise Set
Actual Time 6:48 AM CST 4:34 PM CST
Civil Twilight 6:19 AM CST 5:03 PM CST
Nautical Twilight 5:46 AM CST 5:35 PM CST
Astronomical Twilight 5:15 AM CST 6:07 PM CST
Moon 9:58 AM CST (11/28) 8:20 PM CST (11/28)
Length of Visible Light 10h 43m
Length of Day
9h 45m
Waxing Crescent, 16% of the Moon is Illuminated
Nov 28
Waxing Crescent
Dec 2
First Quarter
Dec 10
Full
Dec 17
Last Quarter
Dec 24
New

Hourly Weather History & Observations

Time (CST) Temp. Windchill Dew Point Humidity Pressure Visibility Wind Dir Wind Speed Gust Speed Precip Events Conditions
12:15 AM 37.4 °F 30.8 °F 35.6 °F 93% 30.06 in 10.0 mi North 9.2 mph - N/A   Overcast
12:35 AM 37.4 °F 30.3 °F 35.6 °F 93% 30.06 in 10.0 mi North 10.4 mph 18.4 mph N/A   Overcast
12:55 AM 37.4 °F 28.9 °F 35.6 °F 93% 30.05 in 10.0 mi North 13.8 mph 17.3 mph N/A   Overcast
1:15 AM 37.4 °F 28.9 °F 35.6 °F 93% 30.04 in 10.0 mi North 13.8 mph - N/A   Overcast
1:35 AM 37.4 °F 29.8 °F 35.6 °F 93% 30.05 in 10.0 mi North 11.5 mph 17.3 mph N/A   Overcast
1:55 AM 37.4 °F 29.3 °F 35.6 °F 93% 30.05 in 10.0 mi North 12.7 mph 18.4 mph N/A   Overcast
2:15 AM 37.4 °F 28.5 °F 35.6 °F 93% 30.04 in 10.0 mi North 15.0 mph - N/A   Overcast
2:35 AM 37.4 °F 29.3 °F 35.6 °F 93% 30.04 in 10.0 mi North 12.7 mph 19.6 mph N/A   Overcast
2:55 AM 37.4 °F 28.9 °F 35.6 °F 93% 30.03 in 10.0 mi North 13.8 mph 19.6 mph N/A   Overcast
3:15 AM 37.4 °F 30.3 °F 35.6 °F 93% 30.03 in 10.0 mi North 10.4 mph - N/A   Overcast
3:35 AM 37.4 °F 29.8 °F 35.6 °F 93% 30.05 in 10.0 mi North 11.5 mph - N/A   Overcast
3:55 AM 37.4 °F 30.3 °F 35.6 °F 93% 30.04 in 10.0 mi North 10.4 mph 16.1 mph N/A   Overcast
4:15 AM 37.4 °F 29.8 °F 35.6 °F 93% 30.02 in 10.0 mi North 11.5 mph 20.7 mph N/A   Overcast
4:35 AM 37.4 °F 29.8 °F 35.6 °F 93% 30.03 in 10.0 mi North 11.5 mph - N/A   Overcast
4:55 AM 37.4 °F 30.3 °F 35.6 °F 93% 30.02 in 10.0 mi North 10.4 mph - N/A   Overcast
5:15 AM 37.4 °F 29.8 °F 35.6 °F 93% 30.02 in 10.0 mi North 11.5 mph 19.6 mph N/A   Overcast
5:35 AM 37.4 °F 29.3 °F 35.6 °F 93% 30.02 in 10.0 mi North 12.7 mph - N/A   Overcast
5:55 AM 37.4 °F 29.3 °F 35.6 °F 93% 30.02 in 10.0 mi North 12.7 mph 18.4 mph N/A   Overcast
6:15 AM 37.4 °F 28.9 °F 35.6 °F 93% 30.02 in 10.0 mi North 13.8 mph 18.4 mph N/A   Overcast
6:35 AM 37.4 °F 29.3 °F 35.6 °F 93% 30.02 in 10.0 mi North 12.7 mph - N/A   Overcast
6:55 AM 37.4 °F 29.3 °F 33.8 °F 87% 30.01 in 10.0 mi North 12.7 mph 18.4 mph N/A   Overcast
7:15 AM 37.4 °F 29.3 °F 33.8 °F 87% 30.01 in 10.0 mi North 12.7 mph 18.4 mph N/A   Overcast
7:35 AM 37.4 °F 29.3 °F 33.8 °F 87% 30.01 in 10.0 mi North 12.7 mph 18.4 mph N/A   Overcast
7:55 AM 37.4 °F 29.3 °F 33.8 °F 87% 30.01 in 10.0 mi North 12.7 mph 18.4 mph N/A   Overcast
8:15 AM 37.4 °F 29.8 °F 33.8 °F 87% 30.00 in 10.0 mi North 11.5 mph - N/A   Overcast
8:35 AM 37.4 °F 28.2 °F 35.6 °F 93% 30.00 in 10.0 mi North 16.1 mph 20.7 mph N/A   Overcast
8:55 AM 37.4 °F 28.9 °F 33.8 °F 87% 30.00 in 10.0 mi North 13.8 mph 20.7 mph N/A   Light Drizzle
9:15 AM 37.4 °F 27.8 °F 35.6 °F 93% 29.98 in 10.0 mi North 17.3 mph 21.9 mph N/A   Overcast
9:35 AM 37.4 °F 28.5 °F 33.8 °F 87% 29.98 in 10.0 mi North 15.0 mph 19.6 mph N/A   Overcast
9:55 AM 37.4 °F 28.5 °F 35.6 °F 93% 29.98 in 10.0 mi North 15.0 mph 24.2 mph N/A   Overcast
10:15 AM 37.4 °F 28.2 °F 35.6 °F 93% 29.97 in 10.0 mi North 16.1 mph 20.7 mph N/A   Overcast
10:35 AM 37.4 °F 27.5 °F 35.6 °F 93% 29.95 in 10.0 mi North 18.4 mph 25.3 mph N/A   Overcast
10:55 AM 37.4 °F 27.5 °F 35.6 °F 93% 29.94 in 10.0 mi North 18.4 mph 25.3 mph N/A Rain Light Rain
11:15 AM 37.4 °F 27.2 °F 35.6 °F 93% 29.92 in 4.0 mi North 19.6 mph 25.3 mph N/A Rain Rain
11:35 AM 37.4 °F 27.8 °F 35.6 °F 93% 29.91 in 3.0 mi North 17.3 mph 24.2 mph N/A   Drizzle
11:55 AM 37.4 °F 26.9 °F 33.8 °F 87% 29.89 in 2.0 mi North 20.7 mph 26.5 mph N/A   Drizzle
12:15 PM 37.4 °F 27.8 °F 35.6 °F 93% 29.88 in 2.5 mi North 17.3 mph 24.2 mph N/A   Drizzle
12:35 PM 37.4 °F 28.2 °F 35.6 °F 93% 29.86 in 2.5 mi North 16.1 mph 23.0 mph N/A Rain Light Rain
12:55 PM 37.4 °F 27.2 °F 35.6 °F 93% 29.83 in 4.0 mi North 19.6 mph 31.1 mph N/A Rain Light Rain
1:15 PM 37.4 °F 26.6 °F 35.6 °F 93% 29.83 in 2.5 mi North 21.9 mph 32.2 mph 0.02 in Rain Light Rain
1:35 PM 37.4 °F 27.8 °F 35.6 °F 93% 29.82 in 2.0 mi North 17.3 mph - 0.03 in Rain Rain
1:55 PM - - 35.6 °F N/A% 29.80 in 3.0 mi North 23.0 mph 29.9 mph 0.08 in Rain Rain
2:15 PM 37.4 °F 26.9 °F 35.6 °F 93% 29.79 in 1.0 mi North 20.7 mph 31.1 mph N/A Rain Rain
2:35 PM 37.4 °F 27.5 °F 35.6 °F 93% 29.79 in 2.5 mi North 18.4 mph 32.2 mph N/A   Unknown
2:55 PM 37.4 °F 26.1 °F 35.6 °F 93% 29.78 in 5.0 mi North 24.2 mph 29.9 mph 0.15 in Rain Light Rain
3:15 PM 37.4 °F 26.1 °F 35.6 °F 93% 29.78 in - North 24.2 mph 34.5 mph N/A   Unknown
3:35 PM 37.4 °F 25.6 °F 35.6 °F 93% 29.76 in 10.0 mi North 26.5 mph 34.5 mph N/A   Unknown
3:55 PM 39.2 °F 28.7 °F 35.6 °F 87% 29.76 in 10.0 mi North 23.0 mph 34.5 mph N/A   Unknown
4:15 PM 39.2 °F 28.5 °F 35.6 °F 87% 29.75 in 10.0 mi North 24.2 mph 32.2 mph N/A   Overcast
4:35 PM 39.2 °F 28.7 °F 35.6 °F 87% 29.74 in 10.0 mi North 23.0 mph 33.4 mph N/A   Unknown
4:55 PM 39.2 °F 28.7 °F 35.6 °F 87% 29.75 in 10.0 mi North 23.0 mph 33.4 mph N/A   Unknown
5:15 PM 39.2 °F 28.5 °F 35.6 °F 87% 29.74 in 10.0 mi North 24.2 mph 36.8 mph N/A Rain Light Rain
5:35 PM 39.2 °F 27.6 °F 35.6 °F 87% 29.72 in 7.0 mi North 28.8 mph 36.8 mph N/A Rain Light Rain
5:55 PM 37.4 °F 27.2 °F 35.6 °F 93% 29.73 in 3.0 mi North 19.6 mph 27.6 mph 0.02 in Rain Rain
6:15 PM 37.4 °F 27.5 °F 35.6 °F 93% 29.74 in 3.0 mi NNE 18.4 mph 26.5 mph 0.02 in Rain Rain
6:35 PM 37.4 °F 26.1 °F 35.6 °F 93% 29.74 in 1.8 mi NNE 24.2 mph 35.7 mph 0.08 in   Unknown
6:55 PM 37.4 °F 26.1 °F 35.6 °F 93% 29.72 in 2.5 mi North 24.2 mph 35.7 mph 0.12 in Rain Light Rain
7:15 PM 37.4 °F 26.4 °F 35.6 °F 93% 29.75 in 10.0 mi NNE 23.0 mph 32.2 mph 0.02 in Rain Light Rain
7:35 PM 37.4 °F 26.6 °F 35.6 °F 93% 29.73 in 7.0 mi North 21.9 mph 31.1 mph 0.02 in Rain Rain
7:55 PM 39.2 °F 29.3 °F 35.6 °F 87% 29.74 in 5.0 mi North 20.7 mph 27.6 mph 0.04 in Rain Rain
8:15 PM 39.2 °F 29.8 °F 35.6 °F 87% 29.74 in 1.8 mi North 18.4 mph 25.3 mph 0.04 in Rain Rain
8:35 PM 37.4 °F 26.4 °F 35.6 °F 93% 29.71 in 10.0 mi North 23.0 mph 28.8 mph 0.06 in Rain Light Rain
8:55 PM 37.4 °F 27.8 °F 35.6 °F 93% 29.72 in 10.0 mi North 17.3 mph 24.2 mph 0.07 in Rain Light Rain
9:15 PM 39.2 °F 29.0 °F 35.6 °F 87% 29.74 in 10.0 mi NNE 21.9 mph 31.1 mph N/A   Light Drizzle
9:35 PM 39.2 °F 29.3 °F 35.6 °F 87% 29.71 in 2.0 mi North 20.7 mph 28.8 mph 0.06 in   Unknown
9:55 PM 39.2 °F 29.3 °F 35.6 °F 87% 29.72 in 10.0 mi North 20.7 mph - 0.07 in Rain Light Rain
10:15 PM 39.2 °F 29.8 °F 35.6 °F 87% 29.73 in 1.5 mi NNE 18.4 mph 29.9 mph 0.06 in Rain Light Rain
10:35 PM 39.2 °F 29.3 °F 35.6 °F 87% 29.72 in 2.5 mi North 20.7 mph 24.2 mph 0.09 in Rain Rain
10:55 PM 37.4 °F 27.5 °F 35.6 °F 93% 29.71 in 5.0 mi North 18.4 mph 26.5 mph 0.12 in Rain Rain
11:15 PM 39.2 °F 30.2 °F 35.6 °F 87% 29.72 in 7.0 mi NNE 17.3 mph 23.0 mph 0.02 in Rain Rain
11:35 PM 39.2 °F 29.8 °F 35.6 °F 87% 29.70 in 7.0 mi North 18.4 mph 24.2 mph 0.05 in Rain Rain
11:55 PM 39.2 °F 30.8 °F 35.6 °F 87% 29.70 in 10.0 mi North 15.0 mph 21.9 mph 0.05 in Rain Light Rain